Wind_Speed
13 12 11 10 10 8 7 5 4 4 5 6 7 8 10 11 12 13 15 16 16 17 18 18 17 17 17 15 13 11 10 7 5 4 4 3 4 5 4 4 5 5 5 5
14 13 13 12 11 9 7 7 6 6 7 7 7 8 9 11 12 12 14 15 16 17 17 18 17 17 17 15 13 11 11 8 6 4 4 3 4 5 5 4 4 5 4 5
15 14 14 13 12 10 9 8 8 8 8 7 8 9 10 10 11 12 14 15 15 16 16 17 17 17 16 15 14 12 10 9 6 4 3 3 3 4 5 5 5 5 5 5
17 16 15 14 13 11 11 10 10 10 9 8 8 8 9 10 12 12 14 15 15 15 15 16 16 17 16 15 14 12 9 8 6 4 2 2 3 4 5 5 5 5 5 5
19 17 16 15 14 13 13 12 11 10 10 9 9 8 9 10 12 12 13 13 14 15 15 15 16 16 15 14 13 11 9 8 7 5 3 2 3 3 5 6 6 6 6 6
20 19 17 16 16 15 15 13 12 12 11 11 10 9 9 9 10 11 12 13 14 15 15 16 15 16 15 14 12 9 8 7 6 5 3 2 3 4 5 6 7 7 7 7
22 20 18 18 18 17 15 14 13 13 12 12 11 10 9 8 9 11 12 13 14 16 16 16 16 16 15 13 11 9 7 6 5 5 5 3 3 3 4 6 7 8 8 9
23 21 20 19 18 17 16 15 15 14 13 12 12 11 9 9 10 11 13 14 15 16 16 16 17 16 15 13 10 9 7 6 5 5 5 4 4 4 5 6 7 8 9 9
25 23 22 21 20 19 17 16 15 16 15 14 13 12 10 10 11 11 13 14 16 16 15 16 17 16 14 12 10 9 7 6 6 6 6 6 6 5 6 6 7 8 9 9
26 25 24 23 22 21 20 18 17 17 17 16 14 13 12 11 11 12 13 14 15 16 16 16 17 16 13 11 9 9 8 7 7 7 7 7 7 6 6 7 7 8 8 9
26 26 25 24 23 21 20 19 19 19 18 17 16 14 13 13 13 13 13 13 14 15 16 16 15 16 13 11 10 9 9 8 8 8 8 8 7 7 7 7 7 7 8 9
27 26 26 25 24 22 21 20 19 19 18 18 17 14 13 13 13 14 14 13 13 15 16 16 15 15 14 12 10 10 9 9 9 9 8 8 8 7 7 7 7 8 8 9
29 28 26 26 25 23 22 20 20 19 19 18 17 14 14 14 14 14 14 14 14 15 15 16 16 16 15 13 11 10 10 10 9 9 8 8 9 8 7 7 7 8 9 9
30 29 27 25 24 24 23 22 21 20 20 19 18 16 15 15 15 15 16 16 15 15 15 16 17 17 16 14 12 11 11 10 10 10 9 9 9 9 8 7 8 8 9 10
31 29 27 26 25 24 24 23 23 22 20 20 18 17 17 18 17 17 17 17 17 17 17 17 17 17 17 14 13 12 12 11 11 10 10 10 10 10 9 8 8 9 10 11
32 30 28 27 26 25 25 24 24 23 22 20 19 18 17 18 18 17 18 17 17 17 18 18 18 18 17 15 13 13 13 12 12 11 11 11 10 10 10 10 10 11 11 12
32 31 29 28 27 27 27 25 25 25 23 22 20 18 18 18 18 18 18 19 18 18 19 19 19 19 17 15 15 15 14 14 13 13 12 12 12 11 11 12 12 12 13 13
31 30 29 29 28 29 27 26 25 25 25 24 23 21 20 20 20 20 20 20 20 19 20 21 20 19 18 17 16 16 16 15 15 14 14 14 14 14 14 14 14 14 14 14
31 30 30 30 30 29 28 27 26 26 26 25 25 24 23 23 22 22 22 23 22 21 21 20 20 20 19 19 18 18 17 16 16 16 16 16 17 16 16 16 16 16 16 16
32 31 31 31 31 31 29 28 28 27 27 26 26 26 25 25 24 23 23 24 23 21 20 20 20 20 21 21 20 19 18 18 18 17 17 18 17 17 17 18 18 18 19 19
34 34 33 33 33 32 31 30 30 30 29 27 27 26 26 25 25 24 24 24 23 22 22 22 22 22 21 21 21 21 19 20 20 19 18 19 19 19 19 19 20 20 21 21
36 36 35 35 34 34 32 32 31 31 30 29 28 27 27 26 26 26 25 25 24 24 23 24 24 23 22 23 23 22 21 21 21 21 20 20 20 21 20 21 22 23 23 24
39 38 37 37 35 34 33 32 31 31 30 30 29 29 28 28 28 27 26 26 26 25 26 25 25 24 24 24 24 23 22 22 23 22 21 21 22 23 23 23 24 23 24 24
40 39 38 37 36 35 34 33 32 31 30 30 30 29 29 28 27 27 27 27 26 27 26 26 25 25 25 25 25 26 24 23 23 22 22 22 23 24 24 24 25 25 26 26
40 39 38 37 36 34 33 32 31 30 30 30 30 30 29 28 28 28 28 28 28 26 26 26 27 27 26 26 27 26 24 23 22 23 23 24 24 25 26 26 27 27 27 27
39 38 37 36 35 33 32 31 30 30 30 30 30 30 30 30 29 29 29 28 27 27 28 28 29 28 28 27 26 25 25 25 24 24 25 26 26 26 27 28 28 27 28 28
Wind_Direction
211 213 216 218 222 227 234 238 262 294 318 336 352 360 360 2 5 7 8 9 8 5 3 4 4 4 3 359 356 355 351 345 334 317 297 247 232 228 225 226 216 206 216 219
209 211 216 222 226 228 236 244 265 290 306 320 335 343 347 356 0 1 2 2 3 1 0 2 1 360 358 357 355 353 352 347 335 324 306 254 229 223 219 222 210 212 227 232
210 214 219 221 224 228 239 251 265 282 296 305 323 338 342 350 354 357 360 1 2 359 360 1 357 355 355 356 355 352 349 349 342 331 304 268 240 228 222 220 215 223 234 240
214 218 220 221 224 230 239 249 259 271 284 295 311 326 338 345 351 355 355 355 358 358 356 356 352 351 353 355 353 353 354 358 360 358 335 274 240 226 223 224 224 228 230 237
217 220 220 222 226 232 240 248 255 263 274 285 296 311 330 341 350 353 351 351 355 354 355 352 349 350 351 352 349 352 357 1 4 3 354 273 246 245 227 230 233 234 234 239
219 222 224 225 230 235 240 249 255 261 269 276 289 304 324 337 347 350 349 350 351 351 349 348 349 350 351 351 349 351 355 360 4 2 350 312 270 263 249 241 240 239 241 244
220 223 226 228 232 237 240 248 255 259 265 274 286 297 313 325 337 345 349 348 350 351 347 348 350 351 352 349 352 351 351 355 356 357 346 321 295 273 262 261 250 246 247 248
224 225 228 231 234 239 243 248 254 258 264 268 277 287 302 314 324 334 342 345 350 349 346 347 351 348 348 348 346 347 348 349 347 349 345 335 317 296 278 271 262 253 250 250
225 227 229 232 234 238 244 247 252 256 262 266 273 283 292 306 319 327 337 342 344 345 345 349 351 351 351 348 346 343 345 347 344 344 341 333 319 307 290 278 270 261 256 253
225 227 229 231 233 237 242 245 249 254 260 265 271 277 287 295 308 316 326 332 338 342 345 348 350 352 354 354 350 347 344 339 334 333 333 330 316 305 300 287 281 272 266 261
225 225 227 229 232 236 241 246 251 256 260 263 268 274 284 293 299 307 318 323 330 338 347 349 350 352 353 353 349 343 338 337 332 329 329 329 323 311 302 290 283 279 270 265
225 225 225 229 232 236 241 245 250 255 259 263 266 270 276 285 293 304 313 322 330 334 342 347 348 348 347 346 342 338 332 330 330 331 329 327 326 315 300 288 283 282 276 273
225 226 225 227 232 236 240 243 248 253 257 261 265 267 273 281 289 300 306 312 320 330 335 342 346 344 342 341 336 334 330 328 325 324 323 323 324 320 300 288 286 283 280 278
225 226 227 230 235 239 242 245 247 252 257 263 268 268 271 279 286 294 300 305 311 320 326 331 337 339 337 335 331 331 327 324 322 319 318 319 321 324 309 289 285 282 283 281
225 226 226 227 230 235 240 244 248 252 257 264 269 271 274 278 283 288 293 298 304 311 317 322 329 332 330 326 324 324 321 320 316 314 312 312 314 318 316 299 291 289 289 287
226 226 226 226 228 232 237 242 247 251 256 263 270 274 277 279 282 287 291 295 301 304 310 315 321 324 323 317 314 314 311 315 312 306 305 306 308 306 310 311 305 298 295 294
226 227 227 228 230 232 235 241 246 251 257 262 268 272 274 278 282 285 290 295 298 301 305 308 311 313 313 308 309 305 303 303 304 302 301 301 302 303 303 302 305 306 304 300
227 229 231 232 233 235 238 242 247 252 257 261 265 270 273 277 281 284 288 294 295 298 302 304 306 306 304 302 302 302 301 297 297 298 296 295 295 296 296 297 299 301 303 302
228 231 233 235 237 240 241 245 250 254 258 260 262 267 272 274 278 284 287 291 292 293 297 299 301 301 302 300 300 297 296 296 293 293 292 293 292 290 291 292 295 297 299 302
228 231 235 238 240 243 246 249 253 257 260 261 263 266 270 273 276 282 284 287 285 288 291 293 296 298 300 302 301 296 293 293 292 292 291 293 294 292 291 290 292 294 296 298
230 233 237 240 244 246 249 252 256 260 263 263 264 266 269 271 273 278 280 279 280 283 287 292 293 295 295 296 296 296 295 297 293 290 290 290 290 290 290 291 291 292 294 295
233 237 240 243 247 250 251 254 257 260 262 262 263 264 267 269 271 274 276 274 278 280 283 288 291 291 292 294 294 294 293 296 294 289 287 289 290 290 290 292 291 290 290 290
235 238 243 246 249 252 253 256 256 258 260 261 262 264 266 268 269 271 271 274 276 277 281 285 289 289 292 292 292 292 292 292 293 291 288 289 290 290 291 291 293 292 292 291
238 241 245 248 250 252 255 256 256 257 258 260 261 263 265 268 267 267 268 271 273 275 280 284 287 287 290 292 292 292 293 290 289 289 290 292 293 291 290 289 291 292 292 292
240 243 246 248 251 253 255 255 255 255 256 258 260 261 262 265 266 266 268 270 273 275 278 282 285 286 288 290 292 294 295 293 290 289 290 291 292 292 291 291 291 291 291 291
239 241 244 247 249 251 252 253 253 253 256 258 259 260 262 264 264 264 265 268 271 273 276 279 281 284 286 287 288 290 292 292 290 289 290 291 290 290 291 291 291 291 292 292
Height
5921 5923 5924 5926 5927 5928 5929 5930 5930 5930 5930 5930 5929 5929 5929 5927 5925 5923 5921 5918 5915 5913 5911 5908 5905 5903 5900 5898 5895 5893 5892 5890 5889 5889 5888 5889 5889 5890 5891 5891 5892 5893 5894 5895
5920 5922 5923 5924 5926 5927 5928 5929 5929 5930 5929 5929 5929 5929 5928 5927 5925 5923 5921 5918 5916 5913 5911 5908 5906 5903 5900 5898 5895 5893 5891 5890 5888 5888 5888 5888 5888 5889 5890 5891 5891 5892 5893 5894
5918 5920 5921 5923 5925 5926 5927 5928 5929 5929 5929 5929 5929 5929 5928 5927 5925 5923 5921 5918 5916 5913 5911 5908 5905 5903 5900 5897 5895 5892 5890 5889 5887 5887 5887 5887 5888 5888 5889 5890 5890 5891 5892 5893
5915 5918 5920 5922 5923 5925 5926 5927 5927 5928 5928 5928 5929 5928 5927 5926 5925 5923 5921 5918 5915 5913 5910 5908 5905 5902 5899 5897 5895 5892 5890 5888 5887 5886 5886 5886 5887 5887 5888 5888 5889 5890 5891 5892
5913 5916 5918 5920 5922 5923 5924 5925 5926 5926 5927 5927 5927 5927 5928 5925 5924 5922 5920 5917 5915 5912 5910 5907 5905 5902 5899 5897 5894 5892 5890 5889 5887 5886 5886 5886 5886 5887 5887 5888 5889 5889 5890 5890
5911 5913 5916 5918 5919 5921 5922 5924 5924 5925 5925 5926 5926 5926 5926 5925 5923 5921 5919 5917 5915 5912 5910 5907 5904 5902 5899 5896 5894 5892 5890 5889 5888 5887 5886 5886 5886 5886 5886 5887 5887 5888 5888 5889
5908 5911 5913 5915 5917 5918 5920 5922 5923 5923 5923 5924 5925 5925 5925 5924 5922 5921 5919 5917 5914 5912 5909 5907 5904 5901 5898 5896 5894 5892 5890 5889 5889 5887 5886 5885 5885 5885 5885 5886 5886 5886 5887 5887
5904 5908 5910 5912 5914 5916 5918 5920 5921 5922 5922 5923 5923 5923 5924 5923 5921 5920 5918 5916 5914 5911 5909 5906 5903 5900 5897 5895 5894 5892 5891 5889 5889 5888 5887 5885 5885 5884 5884 5884 5884 5884 5885 5885
5900 5904 5907 5909 5911 5913 5915 5916 5918 5919 5920 5920 5921 5922 5922 5921 5920 5919 5917 5915 5913 5911 5908 5906 5903 5900 5897 5894 5893 5892 5891 5890 5888 5887 5886 5885 5884 5883 5883 5883 5883 5883 5883 5883
5896 5900 5902 5905 5907 5909 5912 5913 5915 5916 5917 5918 5919 5919 5920 5919 5919 5918 5916 5914 5912 5910 5907 5905 5902 5899 5896 5895 5893 5892 5891 5889 5888 5887 5885 5884 5883 5883 5882 5881 5881 5881 5881 5881
5891 5895 5898 5901 5903 5906 5909 5910 5911 5913 5914 5915 5916 5919 5918 5917 5917 5916 5915 5913 5911 5909 5907 5904 5902 5899 5896 5894 5893 5892 5890 5889 5888 5886 5885 5883 5882 5881 5880 5880 5879 5879 5879 5879
5886 5890 5894 5897 5900 5902 5904 5906 5908 5910 5911 5912 5913 5917 5915 5915 5914 5914 5913 5911 5910 5908 5905 5903 5901 5899 5896 5894 5892 5891 5889 5888 5887 5885 5884 5883 5881 5880 5879 5878 5878 5877 5877 5877
5881 5886 5889 5893 5897 5899 5900 5902 5904 5906 5907 5908 5910 5914 5912 5912 5912 5911 5911 5909 5908 5907 5905 5902 5900 5898 5896 5893 5891 5889 5888 5887 5886 5884 5883 5882 5880 5878 5877 5876 5876 5876 5875 5875
5876 5881 5886 5890 5892 5894 5896 5899 5901 5902 5903 5905 5907 5909 5909 5909 5909 5909 5908 5907 5906 5905 5903 5901 5899 5896 5894 5892 5890 5888 5887 5886 5884 5883 5882 5880 5878 5877 5875 5874 5874 5873 5873 5872
5871 5876 5880 5884 5887 5890 5892 5894 5896 5898 5900 5901 5903 5904 5905 5905 5906 5905 5905 5904 5903 5902 5900 5898 5896 5894 5892 5890 5888 5887 5885 5884 5882 5881 5880 5878 5877 5875 5874 5872 5872 5871 5870 5870
5866 5871 5875 5878 5882 5885 5887 5889 5892 5894 5895 5897 5899 5901 5901 5901 5902 5901 5901 5901 5900 5899 5897 5895 5893 5891 5889 5887 5886 5884 5883 5881 5880 5879 5877 5876 5875 5873 5872 5871 5870 5869 5868 5867
5861 5866 5870 5874 5877 5879 5882 5885 5887 5889 5891 5893 5895 5897 5897 5897 5898 5897 5897 5896 5896 5895 5893 5892 5890 5888 5885 5884 5883 5881 5879 5878 5877 5876 5874 5873 5872 5871 5870 5869 5867 5866 5865 5863
5857 5861 5865 5868 5872 5875 5880 5880 5882 5884 5886 5888 5890 5892 5892 5893 5893 5893 5893 5892 5891 5891 5889 5888 5886 5884 5882 5881 5879 5878 5876 5875 5873 5872 5871 5870 5869 5868 5867 5866 5864 5863 5861 5860
5852 5856 5859 5863 5866 5869 5873 5875 5877 5879 5881 5883 5885 5886 5887 5888 5888 5889 5889 5888 5887 5886 5885 5884 5882 5880 5878 5876 5874 5873 5872 5870 5869 5868 5867 5866 5864 5863 5862 5861 5860 5859 5857 5856
5846 5850 5854 5857 5860 5863 5868 5870 5871 5875 5876 5878 5879 5880 5882 5882 5883 5884 5883 5882 5881 5881 5880 5879 5878 5876 5874 5872 5870 5869 5867 5866 5864 5863 5863 5861 5860 5859 5858 5857 5855 5854 5853 5851
5840 5844 5847 5851 5854 5858 5861 5863 5866 5869 5871 5872 5873 5874 5875 5876 5877 5878 5877 5876 5876 5875 5874 5873 5872 5871 5869 5867 5866 5864 5863 5861 5860 5858 5858 5856 5855 5854 5853 5851 5850 5849 5847 5846
5834 5837 5841 5845 5848 5853 5855 5857 5860 5861 5863 5864 5866 5867 5868 5869 5870 5871 5870 5870 5870 5869 5868 5867 5866 5865 5864 5862 5860 5858 5857 5856 5854 5853 5852 5851 5849 5848 5847 5846 5844 5843 5841 5840
5827 5831 5835 5839 5843 5845 5848 5850 5852 5854 5855 5857 5859 5860 5862 5862 5863 5864 5864 5864 5863 5863 5862 5861 5860 5859 5858 5856 5855 5853 5851 5850 5849 5847 5846 5845 5844 5842 5841 5840 5838 5837 5835 5833
5819 5823 5828 5831 5834 5837 5840 5842 5845 5847 5848 5850 5851 5853 5854 5855 5856 5856 5857 5857 5856 5856 5856 5855 5854 5853 5851 5850 5848 5846 5842 5842 5841 5841 5839 5838 5837 5835 5834 5833 5831 5830 5828 5826
5812 5816 5820 5823 5827 5830 5832 5835 5837 5839 5841 5842 5844 5845 5846 5847 5848 5849 5849 5849 5849 5849 5849 5848 5847 5846 5845 5843 5841 5839 5837 5836 5835 5835 5834 5832 5831 5829 5828 5826 5825 5823 5821 5819
5804 5808 5813 5816 5820 5823 5825 5827 5829 5831 5833 5835 5836 5837 5838 5839 5840 5841 5841 5842 5842 5842 5842 5841 5840 5839 5838 5837 5835 5833 5831 5831 5829 5828 5827 5825 5823 5822 5821 5819 5817 5815 5814 5812